MINOTAUR 4 DEB, 54256

Orbit data source: Space-Track

MINOTAUR 4 DEB, 54256 is space debris in LEO originally from a launch on Wed, 15 Jul 2020 UTC launched from the Wallops Island (WLPIS). Debris objects in space refer to the collection of defunct objects orbiting the Earth. Examples of debris include non-operational satellites, rocket bodies, and fragments generated from explosions, collisions, or faulty payload assembly.

Loading next visibility...
Identifier
54256, 2020-046AK
Orbit
LEO
Country
Flag of USUS
Related business
Manufacturer
NGIS FSG
Mission
Spacecraft
Bus & Motor
Unknown
Mass
Unknown
Launch date (UTC)
2020-07-15 (5 years ago)
Launch vehicle
Unknown
Launch site
Wallops Island (WLPIS)
Object type
Payload
Rocket body
Debris
Shape & HBR
Unknown shape, 0.1 m
Radar Cross Section
Small (<0.1 m²)

Expand to show TLE details & history
Last TLE update: 22 hours ago

TLE from 22 hours ago
0 MINOTAUR 4 DEB
1 54256U 20046AK  25350.26374589  .00017373  00000-0  68743-3 0  9995
2 54256  54.2395 345.0853 0020119  70.3761 289.9420 15.25407907218271
Epoch: 2025-12-16T06:19Z
TLE epoch observation values (Epoch: 2025-12-16T06:19:47.644Z)
Latitude
-0.00012°
Longitude
164.98624°
Altitude
485.886 km
Speed
7.626 km/s
True Right ascension
23h 00m 20s
True Declination
0° 00' 00"
Sunlit
Object was in daylight at epoch
Visualization orbit readout
Latitude
Unknown
Longitude
Unknown
Altitude
Unknown
Speed
Unknown
Apparent Right ascension
Unknown
Apparent Declination
Unknown
Sunlit
N/A
Visualization observer readout
Local Sidereal Time
02:43:20
Azimuth
Unknown
Elevation
Unknown
Doppler factor
Unknown
Orbital elements
Apogee altitude
503.461 km
Perigee altitude
475.827 km
Semi-major axis
6,867.781 km
Eccentricity
0.00201
Inclination
54.2395°
RAAN
345.0853°
Arg. of periapsis
70.3761°
True anomaly
289.72509°
Mean anomaly
289.942°
Eccentric anomaly
289.83356°
Mean motion
3.81345 °/min
Orbital period
94.4 mins
BSTAR
0.00068743
Loading maneuver chart data...
Computing Atmospheric mass density...

Documentation

Showing up to 5 results
|